DW5078 Weather Reports


Display with metric or nautical units.
time (UTC)temp
F
wind
direction
speed
MPH
gust
MPH
rain 1hr
in
rain 24hr
in
rain mn
in
humidity
%
barometer
mb
20200410100957 57 336 0.0 0.0 0.00 0.00 0.00 49 1014.1
20200410094957 57 336 0.0 0.0 0.00 0.00 0.00 49 1013.7
20200410090957 57 336 0.0 0.0 0.00 0.00 0.00 49 1013.5
20200410085957 57 336 0.0 0.0 0.00 0.00 0.00 49 1013.5
20200410084957 57 336 0.0 0.0 0.00 0.00 0.00 49 1013.6
20200410083956 58 287 0.0 0.0 0.00 0.00 0.00 50 1013.6
20200410082957 58 299 0.0 0.0 0.00 0.00 0.00 50 1013.6
20200410081956 58 334 0.0 0.0 0.00 0.00 0.00 51 1013.4
20200410080957 58 205 0.0 0.0 0.00 0.00 0.00 52 1013.3
20200410074957 59 341 0.0 0.0 0.00 0.00 0.00 52 1013.3
20200410071957 59 320 0.0 0.0 0.00 0.00 0.00 53 1013.3
20200410064957 60 265 0.0 0.0 0.00 0.00 0.00 52 1013.0
20200410063956 60 4 0.0 0.0 0.00 0.00 0.00 51 1013.1
20200410062956 60 354 0.0 0.0 0.00 0.00 0.00 51 1013.1
20200410061956 60 353 0.0 0.0 0.00 0.00 0.00 50 1013.0
20200410060956 61 329 0.0 0.0 0.00 0.00 0.00 50 1013.1
20200410054956 61 343 0.0 0.0 0.00 0.00 0.00 49 1012.9
20200410050957 62 257 0.0 0.0 0.00 0.00 0.00 49 1012.7
20200410045957 62 354 0.0 0.0 0.00 0.00 0.00 49 1012.7
20200410043956 63 332 0.0 0.0 0.00 0.00 0.00 49 1012.5
20200410042957 63 299 0.0 0.0 0.00 0.00 0.00 50 1012.3
20200410041956 63 351 0.0 0.0 0.00 0.00 0.00 52 1012.2
20200410035956 64 346 0.0 0.0 0.00 0.00 0.00 53 1011.7
20200410031956 65 308 0.0 0.0 0.00 0.00 0.00 55 1011.0
20200410030956 65 333 0.0 0.0 0.00 0.00 0.00 54 1010.7
20200410023956 66 33 0.0 0.0 0.00 0.00 0.00 55 1009.5
20200410021956 67 65 0.0 0.0 0.00 0.00 0.00 55 1009.5
20200410020956 68 265 0.0 0.0 0.00 0.00 0.00 54 1009.1
20200410014956 68 244 0.0 0.0 0.00 0.00 0.00 59 1008.6
20200410013956 69 246 0.0 0.0 0.00 0.00 0.00 58 1008.2
20200410012956 69 260 0.0 0.0 0.00 0.00 0.00 57 1008.4
20200410010956 70 239 0.0 0.0 0.00 0.00 0.00 56 1007.7
20200410001956 71 338 0.0 0.0 0.00 0.00 0.00 54 1007.4
20200410000956 71 16 0.0 0.0 0.00 0.00 0.00 53 1007.6
20200409235956 72 350 0.0 0.0 0.00 0.00 0.00 54 1007.7
20200409234956 72 197 0.0 0.0 0.00 0.00 0.00 55 1007.4
20200409232956 72 256 0.0 0.0 0.00 0.00 0.00 54 1007.5
20200409231956 73 210 0.0 0.0 0.00 0.00 0.00 54 1007.4
20200409230956 73 316 0.0 0.0 0.00 0.00 0.00 55 1007.5
20200409225955 74 184 0.0 0.0 0.00 0.00 0.00 55 1007.8
20200409223955 73 210 0.0 0.0 0.00 0.00 0.00 55 1008.4
20200409222956 73 240 0.0 0.0 0.00 0.00 0.00 55 1008.5
20200409221956 73 220 0.0 0.0 0.00 0.00 0.00 56 1008.8
20200409214955 74 277 0.0 0.0 0.00 0.00 0.00 55 1008.5
20200409211956 74 205 0.0 0.0 0.00 0.00 0.00 56 1008.5
20200409205956 74 199 0.0 0.0 0.00 0.00 0.00 54 1008.4
20200409204955 74 169 0.0 0.0 0.00 0.00 0.00 53 1008.2
20200409203956 74 211 0.0 0.0 0.00 0.00 0.00 54 1008.1
20200409201955 75 193 0.0 0.0 0.00 0.00 0.00 55 1008.2
20200409200955 75 171 0.0 0.0 0.00 0.00 0.00 54 1007.7
20200409193955 76 229 0.0 0.0 0.00 0.00 0.00 56 1007.8
20200409191955 77 155 0.0 0.0 0.00 0.00 0.00 52 1008.2
20200409184955 76 230 0.0 0.0 0.00 0.00 0.00 54 1008.1
20200409182955 77 197 0.0 0.0 0.00 0.00 0.00 52 1007.8
20200409174955 76 208 0.0 0.0 0.00 0.00 0.00 55 1009.1
20200409173955 76 211 0.0 0.0 0.00 0.00 0.00 54 1009.0
20200409170955 76 142 0.0 0.0 0.00 0.00 0.00 52 1008.9
20200409165955 76 31 0.0 0.0 0.00 0.00 0.00 52 1009.0
20200409164955 76 223 0.0 0.0 0.00 0.00 0.00 52 1009.1
20200409162955 75 166 0.0 0.0 0.00 0.00 0.00 54 1008.6
20200409161955 76 161 0.0 0.0 0.00 0.00 0.00 56 1008.7
20200409153955 76 166 0.0 0.0 0.00 0.00 0.00 57 1008.9
20200409152955 75 274 0.0 1.0 0.00 0.00 0.00 57 1009.0
20200409151956 74 3 0.0 0.0 0.00 0.00 0.00 58 1008.9
20200409150955 73 287 0.0 0.0 0.00 0.00 0.00 58 1008.9
20200409143955 73 50 0.0 0.0 0.00 0.00 0.00 56 1008.2
20200409142955 72 320 0.0 0.0 0.00 0.00 0.00 57 1008.2
20200409140955 71 199 0.0 0.0 0.00 0.00 0.00 60 1008.1
20200409134954 69 338 0.0 0.0 0.00 0.00 0.00 61 1008.2
20200409133955 68 334 0.0 0.0 0.00 0.00 0.00 63 1008.1
20200409131955 66 256 0.0 0.0 0.00 0.00 0.00 66 1007.8
20200409130955 66 336 0.0 0.0 0.00 0.00 0.00 66 1007.9
20200409125955 65 340 0.0 0.0 0.00 0.00 0.00 66 1007.6
20200409122954 72 315 0.0 0.0 0.00 0.00 0.00 57 1007.1
20200409121956 72 315 0.0 0.0 0.00 0.00 0.00 57 1006.9
20200409120954 72 315 0.0 0.0 0.00 0.00 0.00 57 1006.9
20200409115955 72 315 0.0 0.0 0.00 0.00 0.00 57 1006.6
20200409113955 72 315 0.0 0.0 0.00 0.00 0.00 57 1006.6
20200409110955 72 315 0.0 0.0 0.00 0.00 0.00 57 1006.6
20200409105955 72 315 0.0 0.0 0.00 0.00 0.00 57 1006.4
20200409104955 72 315 0.0 0.0 0.00 0.00 0.00 57 1006.3
20200409103955 72 315 0.0 0.0 0.00 0.00 0.00 57 1006.1